This demonstration page uses our WeatherBlox Daily Observations layout. Learn more.

Left ArrowRight Arrow

38.20091, -84.87328

Hourly Observations for May 5, 2020

Temp ( °F °C ) Dew Point ( °F °C ) Humidity (%) Winds ( mph kmh ) Pressure ( in mb ) Visibility ( mi km ) Precip ( " mm )
12:53 am 00:53 Mostly Cloudy 59 15 45 7.2 60 60 ENE 9 15 29.88 1012 10 16 0.00 0.00
1:53 am 01:53 Mostly Clear 59 15 45 7.2 60 60 ENE 9 15 29.87 1011 10 16 0.00 0.00
2:53 am 02:53 Cloudy 58 14.4 45 7.2 62 62 E 7 11 29.85 1011 10 16 0.00 0.00
3:53 am 03:53 Cloudy 59 15 44 6.7 58 58 NE 7 11 29.82 1010 10 16 0.00 0.00
4:53 am 04:53 Cloudy 58 14.4 43 6.1 58 58 ENE 10 17 29.79 1009 10 16 0.00 0.00
5:53 am 05:53 Cloudy with Rain 53 11.7 47 8.3 80 80 NE 8 13 29.83 1010 6 10 0.10 2.54
6:20 am 06:20 Cloudy with Thunderstorms 52 11.1 46 7.8 80 80 E 9 15 29.82 1010 7 11 0.07 1.78
6:35 am 06:35 Cloudy with Nearby Thunderstorms 52 11.1 47 8.3 83 83 ENE 10 17 29.84 1010 5 8 0.12 3.05
6:53 am 06:53 Cloudy with Strong Thunderstorms 51 10.6 47 8.3 86 86 E 13 20 29.78 1008 4 6 0.21 5.33
7:12 am 07:12 Cloudy with Rain 51 10.6 47 8.3 86 86 ENE 12 19 29.81 1009 8 13 0.04 1.02
7:21 am 07:21 Cloudy with Light Rain 51 10.6 47 8.3 86 86 ENE 9 15 29.82 1010 10 16 0.04 1.02
7:53 am 07:53 Cloudy with Light Rain 51 10.6 47 8.3 86 86 ENE 8 13 29.79 1009 9 14 0.05 1.27
9:29 am 09:29 Cloudy 50 10 46 7.8 86 86 E 12 19 29.81 1009 10 16 0.00 0.00
9:53 am 09:53 Cloudy with Mist and Fog 50 10 46 7.8 86 86 ENE 14 22 29.78 1008 4 6 0.00 0.00
10:38 am 10:38 Cloudy 50 10 46 7.8 86 86 ENE 14 22 29.79 1009 9 14 0.00 0.00
10:53 am 10:53 Cloudy 50 10 46 7.8 86 86 ENE 10 17 29.78 1009 10 16 0.00 0.00
11:27 am 11:27 Cloudy with Mist and Fog 50 10 46 7.8 86 86 ENE 8 13 29.79 1009 3 4 0.00 0.00
11:36 am 11:36 Cloudy with Mist and Fog 50 10 46 7.8 86 86 ENE 13 20 29.79 1009 3 5 0.00 0.00
12:45 pm 12:45 Cloudy with Mist and Fog 50 10 47 8.3 89 89 NE 8 13 29.79 1009 2 2 0.00 0.00
12:53 pm 12:53 Cloudy with Mist and Fog 49 9.4 46 7.8 90 90 ENE 10 17 29.77 1008 2 3 0.00 0.00
1:03 pm 13:03 Cloudy with Mist and Fog 49 9.4 46 7.8 90 90 NE 7 11 29.78 1009 2 3 0.00 0.00
1:22 pm 13:22 Cloudy with Mist and Fog 50 10 47 8.3 89 89 E 6 9 29.78 1008 2 3 0.00 0.00
1:34 pm 13:34 Cloudy with Mist and Fog 50 10 47 8.3 89 89 ENE 7 11 29.77 1008 2 3 0.00 0.00
1:42 pm 13:42 Cloudy with Mist and Fog 50 10 47 8.3 89 89 ENE 6 9 29.77 1008 3 4 0.00 0.00
1:44 pm 13:44 Cloudy with Mist and Fog 50 10 47 8.3 89 89 ENE 6 9 29.77 1008 3 5 0.00 0.00
1:53 pm 13:53 Cloudy with Mist and Fog 50 10 48 8.9 93 93 NE 3 6 29.76 1008 3 5 0.00 0.00
2:08 pm 14:08 Cloudy with Mist and Fog 50 10 47 8.3 89 89 NNE 5 7 29.78 1008 3 5 0.00 0.00
2:34 pm 14:34 Cloudy 51 10.6 47 8.3 86 86 NNE 6 9 29.78 1008 9 14 0.00 0.00
2:51 pm 14:51 Cloudy 52 11 46 8 82 82 NE 3 6 29.79 1009 10 16 0.00 0.00
2:53 pm 14:53 Cloudy 51 10.6 47 8.3 86 86 Calm 29.78 1008 10 16 0.00 0.00
3:53 pm 15:53 Cloudy with Mist and Fog 51 10.6 47 8.3 86 86 WNW 5 7 29.80 1009 3 5 0.00 0.00
4:17 pm 16:17 Cloudy with Mist and Fog 51 10.6 48 8.9 89 89 WNW 6 9 29.82 1010 4 6 0.00 0.00
4:53 pm 16:53 Cloudy with Mist and Fog 50 10 47 8.3 89 89 W 7 11 29.82 1010 3 4 0.00 0.00
5:15 pm 17:15 Cloudy with Mist and Fog 50 10 47 8.3 89 89 NW 6 9 29.84 1010 3 5 0.00 0.00
5:36 pm 17:36 Cloudy 51 10.6 47 8.3 86 86 W 8 13 29.85 1011 7 11 0.00 0.00
5:53 pm 17:53 Cloudy 51 10.6 47 8.3 86 86 W 7 11 29.84 1010 9 14 0.00 0.00
6:53 pm 18:53 Cloudy 50 10 46 7.8 86 86 NNW 9 15 29.85 1011 10 16 0.00 0.00
7:53 pm 19:53 Cloudy 50 10 46 7.8 86 86 NW 7 11 29.86 1011 10 16 0.00 0.00
8:07 pm 20:07 Cloudy 50 10 46 7.8 86 86 NNW 8 13 29.88 1012 10 16 0.00 0.00
8:16 pm 20:16 Cloudy 50 10 46 7.8 86 86 NNW 7 11 29.88 1012 9 14 0.00 0.00
8:53 pm 20:53 Cloudy with Mist and Fog 50 10 46 7.8 86 86 NNW 5 7 29.89 1012 6 10 0.00 0.00
9:53 pm 21:53 Cloudy with Mist and Fog 49 9.4 46 7.8 90 90 NNW 6 9 29.92 1013 6 10 0.00 0.00
10:04 pm 22:04 Cloudy with Mist and Fog 48 8.9 45 7.2 89 89 NNW 8 13 29.93 1014 3 4 0.00 0.00
10:19 pm 22:19 Cloudy with Mist and Fog 48 8.9 45 7.2 89 89 NW 6 9 29.93 1014 5 8 0.00 0.00
10:34 pm 22:34 Cloudy 48 8.9 44 6.7 86 86 NW 7 11 29.94 1014 10 16 0.00 0.00
10:53 pm 22:53 Cloudy 47 8.3 44 6.7 90 90 WNW 3 6 29.93 1014 10 16 0.00 0.00
11:53 pm 23:53 Cloudy 47 8.3 43 6.1 86 86 WSW 3 6 29.92 1013 10 16 0.00 0.00

Powered by AerisWeather